User: anonymous   Login
Location: Leipzig
(51.3397°N, 12.3731°E)
Time: 05:55:37
(UTC+02:00)
Language:

ISS - Orbit

View from above orbital plane
View from above orbital plane
View from above satellite
View from above satellite

Ground track
Ground track

The orbit data is extracted from the following two-line orbital elements,

1 25544U 98067A   24262.83187815  .00020458  00000-0  37415-3 0  9999
2 25544  51.6372 211.5317 0007387   6.9330 353.1759 15.49311006473076
Epoch (UTC): 18 September 2024 19:57:54
Eccentricity: 0.0007387
inclination: 51.6372°
perigee height: 414 km
apogee height: 424 km
right ascension of ascending node: 211.5317°
argument of perigee: 6.9330°
revolutions per day: 15.49311006
mean anomaly at epoch: 353.1759°
orbit number at epoch: 47307

The dashed part of the orbit path shows where the satellite is in the earth's shadow,  

DLR